{"data":{"norad_id":49817,"epoch":"2026-05-24T15:14:05.156160Z","epoch_age_seconds":106578,"freshness":"FRESH","line1":"1 49817U 21118A   26144.63478190 -.00000049  00000+0  00000+0 0  9999","line2":"2 49817   0.2618  85.5364 0001738 254.8014  18.6459  1.00273134 16339","mean_motion":1.00273134,"eccentricity":0.0001738,"inclination_deg":0.2618,"raan_deg":85.5364,"arg_perigee_deg":254.8014,"mean_anomaly_deg":18.6459,"bstar":0,"rev_number":1633,"period_min":1436.0775838521,"perigee_km":35778.888627071,"apogee_km":35793.544956449,"semimajor_km":42164.35379176,"source":"CELESTRAK","updated_at":"2026-05-25T13:38:14.104001Z"}}